Torna al catalogo

ESA/GOES

AttivoMeteoHEO
NORAD 9931·PAYLOAD·🇪🇺 EU

Lanciato Apr 20, 1977 da Cape Canaveral Space Force Station

Loading…

Prossimi Passaggi (prossime 24 ore)

TLE

AggiornatoSource: Space-Track

Epoca: Sep 12, 2026, 17:52 UTC

1  9931U 77029A   26255.74501321 -.00000416  00000-0  00000+0 0  9991
2  9931  27.6416  23.2766 6605546 341.0815   2.8502  1.96176665353577

Traccia ESA/GOES in tempo reale con AllMySat

Download on the App Store